Location: Équennes
(49.7375°N, 1.9622°E)
Time: 18:05:34
(UTC+00:00)

Cosmos 2278 - Pass Details

Date: 26 September 2023
Orbit: 838 x 853 km, 71.1° (Epoch: 08 December)

Event Time Altitude Azimuth Distance (km) Brightness Sun altitude
Rises 23:43:45 0° 332° (NNW) 3,425 7.5 -41.7°
Reaches altitude 10° 23:47:27 10° 356° (N) 2,489 6.8 -41.7°
Maximum altitude 23:50:34 15° 30° (NNE) 2,169 6.3 -41.7°
Enters shadow 23:51:48 14° 44° (NE) 2,221 6.2 -41.7°
